Regional Weather Roundup
Issued by NWS Raleigh/Durham, NC

Home | Current Version | Previous Version | Text Only | Print | Product List | Glossary On
Versions: 1 2 3 4 5 6 7 8 9 10 11 12 13 14 15 16 17 18 19 20 21 22 23 24 25 26
000
ASUS42 KRAH 231510
RWRRAH
NORTH CAROLINA WEATHER ROUNDUP
NATIONAL WEATHER SERVICE RALEIGH NC
1100 AM EDT FRI JUN 23 2017

NOTE: "FAIR" INDICATES FEW OR NO CLOUDS BELOW 12,000 FEET WITH NO
SIGNIFICANT WEATHER AND/OR OBSTRUCTIONS TO VISIBILITY.

NCZ001-053-055-056-065-067-231600-
WESTERN NORTH CAROLINA

CITY           SKY/WX    TMP DP  RH WIND       PRES   REMARKS
ASHEVILLE      SUNNY     80  65  59 S12       30.04F
JEFFERSON      PTSUNNY   70  68  92 CALM      30.06S
HICKORY        PTSUNNY   79  72  79 SW9G17    29.99S
RUTHERFORDTON  NOT AVBL
MOUNT AIRY     CLOUDY    76  72  86 SW5       30.00S
BOONE          NOT AVBL
$$

NCZ021-022-025-041-071-084-088-231600-
CENTRAL NORTH CAROLINA

CITY           SKY/WX    TMP DP  RH WIND       PRES   REMARKS
CHARLOTTE      PTSUNNY   81  72  74 SW10G23   30.02S
GREENSBORO     PTSUNNY   81  75  82 SW14      29.97S
WINSTON-SALEM  CLOUDY    80  70  71 SW13G21   29.98S
RALEIGH-DURHAM CLOUDY    80  75  84 SW16      29.98F
FORT BRAGG     CLOUDY    82  73  74 SW8       30.00S
FAYETTEVILLE   CLOUDY    84  76  76 SW12      30.01S
BURLINGTON     MOSUNNY   83  75  77 S13G20    29.97S
LAURINBURG     CLOUDY    83  76  79 W10       30.02F
$$

NCZ011-015-027-028-043-044-047-080-103-231600-
NORTHEASTERN NORTH CAROLINA

CITY           SKY/WX    TMP DP  RH WIND       PRES   REMARKS
ROCKY MT-WILSO CLOUDY    79  76  90 SW12      29.98F
GREENVILLE     CLOUDY    81  75  83 SW10      30.01F
WASHINGTON     LGT RAIN  80  75  84 SW7       30.00F
ELIZABETH CITY CLOUDY    83  78  85 SW14      29.97F
MANTEO         CLOUDY    83  74  76 W13       30.00F
CAPE HATTERAS  CLOUDY    83  76  79 SW7       30.02F
$$

NCZ078-087-090-091-093-098-101-231600-
SOUTHEASTERN NORTH CAROLINA

CITY           SKY/WX    TMP DP  RH WIND       PRES   REMARKS
LUMBERTON      PTSUNNY   83  76  79 SW7       30.01F
GOLDSBORO      PTSUNNY   83  79  86 SW16      29.99S HX  95
KINSTON        CLOUDY    82  73  74 SW14      30.01S
KENANSVILLE    CLOUDY    82  75  78 SW12G22   30.01F
NEW BERN       CLOUDY    82  76  81 SW9       30.02F
CHERRY POINT   MOSUNNY   84  74  71 W18       30.03S
BEAUFORT       CLOUDY    82  79  90 SW14      30.03S
JACKSONVILLE   CLOUDY    84  76  76 SW15G22   30.02R
WILMINGTON     CLOUDY    85  75  72 SW16      30.03F
$$





USA.gov is the U.S. government's official web portal to all federal, state and local government web resources and services.